Location: Copper Breaks State Park
(34.1132°N, 99.7492°W)
Time: 20:00:00
(UTC-05:00)

SL-16 R/B - Visible Passes

Search period start: 21 April 2018 00:00
Search period end: 01 May 2018 00:00
Orbit: 986 x 1006 km, 99.4° (Epoch: 21 April)

Date Brightness Start Highest point End Pass type
(mag) Time Alt. Az. Time Alt. Az. Time Alt. Az.
21 Apr 3.8 03:05:46 35° NE 03:05:46 35° NE 03:10:27 10° N visible
21 Apr 3.9 04:50:50 23° WNW 04:50:50 23° WNW 04:53:43 10° NW visible
22 Apr 3.2 03:36:53 52° NNE 03:36:53 52° NNE 03:41:40 10° N visible
22 Apr 4.4 05:21:58 12° WNW 05:21:58 12° WNW 05:23:00 10° WNW visible
23 Apr 4.7 02:22:56 17° ENE 02:23:17 17° ENE 02:27:08 10° NNE visible
23 Apr 3.1 04:08:01 47° NW 04:08:01 47° NW 04:12:29 10° NNW visible
24 Apr 4.0 02:54:04 30° ENE 02:54:04 30° ENE 02:59:06 10° N visible
24 Apr 3.6 04:39:09 30° WNW 04:39:09 30° WNW 04:42:54 10° NNW visible
25 Apr 3.2 03:25:12 51° NE 03:25:12 51° NE 03:30:27 10° N visible
25 Apr 4.1 05:10:17 17° WNW 05:10:17 17° WNW 05:12:37 10° NW visible
26 Apr 4.9 02:11:16 13° ENE 02:12:21 14° ENE 02:15:17 10° NNE visible
26 Apr 2.8 03:56:21 60° NNW 03:56:21 60° NNW 04:01:25 10° NNW visible
27 Apr 4.2 02:42:24 25° ENE 02:42:45 25° ENE 02:47:41 10° NNE visible
27 Apr 3.2 04:27:29 39° WNW 04:27:29 39° WNW 04:32:00 10° NNW visible
28 Apr 3.4 03:13:32 44° ENE 03:13:32 44° ENE 03:19:12 10° N visible
28 Apr 3.8 04:58:38 22° WNW 04:58:38 22° WNW 05:02:01 10° NW visible
29 Apr 5.1 02:00:04 10° ENE 02:01:25 11° ENE 02:02:46 10° NE visible
29 Apr 2.7 03:44:41 71° NNE 03:44:41 71° NNE 03:50:18 10° N visible
29 Apr 4.4 05:29:46 11° WNW 05:29:46 11° WNW 05:30:39 10° WNW visible
30 Apr 4.5 02:30:45 20° ENE 02:31:46 20° ENE 02:36:09 10° NNE visible
30 Apr 2.8 04:15:50 51° WNW 04:15:50 51° WNW 04:21:01 10° NNW visible
